Location: Campillo
(40.8621°N, 4.2488°W)
Time: 13:03:50
(UTC+00:00)

USA 245 - Pass Details

Date: 11 May 2021
Orbit: 265 x 982 km, 97.9° (Epoch: 08 June)

Event Time Altitude Azimuth Distance (km) Brightness Sun altitude
Exits shadow 21:22:30 26° 7° (N) 583 3.9 -18.9°
Drops below altitude 10° 21:23:39 10° 356° (N) 1,078 5.5 -19.1°
Sets 21:25:28 0° 352° (N) 1,906 7.0 -19.3°
